• En España
  • Lista de países
  • Para 7 días
  • Temperatura del agua
  • Mapa Satelital
  • El tiempo en el mapa
  • Informadores
  • user-avatar
    Iniciar sesión

    Tiempo cada hora Linz

    Hoy, 18 Octubre, Miércoles

    Tiempo Temperatura Precipitaciones Viento Presión Humedad
    00:00 +13°C° 0 mm 1 mps 736 mmHg 72%
    01:00 +12°C° 0 mm 1 mps 735 mmHg 72%
    02:00 +12°C° 0 mm 1 mps 735 mmHg 71%
    03:00 +12°C° 0 mm 1 mps 735 mmHg 71%
    04:00 +12°C° 0 mm 1 mps 734 mmHg 71%
    05:00 +12°C° 0 mm 1 mps 734 mmHg 71%
    06:00 +12°C° 0 mm 1 mps 734 mmHg 71%
    07:00 +11°C° 0 mm 1 mps 734 mmHg 70%
    08:00 +13°C° 0 mm 1 mps 734 mmHg 64%
    09:00 +16°C° 0 mm 1 mps 734 mmHg 59%
    10:00 +17°C° 0 mm 0 mps 734 mmHg 54%
    11:00 +20°C° 0 mm 1 mps 733 mmHg 53%
    12:00 +21°C° 0 mm 1 mps 733 mmHg 52%
    13:00 +22°C° 0 mm 1 mps 733 mmHg 52%
    14:00 +21°C° 0 mm 1 mps 733 mmHg 58%
    15:00 +20°C° 0 mm 1 mps 732 mmHg 64%
    16:00 +20°C° 0 mm 1 mps 732 mmHg 69%
    17:00 +18°C° 0 mm 1 mps 732 mmHg 75%
    18:00 +15°C° 0 mm 1 mps 732 mmHg 81%
    19:00 +13°C° 0 mm 1 mps 733 mmHg 86%
    20:00 +13°C° 0 mm 1 mps 733 mmHg 87%
    21:00 +13°C° 0 mm 1 mps 733 mmHg 88%
    22:00 +12°C° 0 mm 1 mps 733 mmHg 88%
    23:00 +12°C° 0 mm 1 mps 733 mmHg 88%

    Mañana, 19 Octubre, Jueves

    Tiempo Temperatura Precipitaciones Viento Presión Humedad
    00:00 +12°C° 0 mm 1 mps 733 mmHg 88%
    01:00 +11°C° 0 mm 1 mps 733 mmHg 89%
    02:00 +11°C° 0 mm 1 mps 733 mmHg 88%
    03:00 +11°C° 0 mm 1 mps 733 mmHg 88%
    04:00 +11°C° 0 mm 1 mps 733 mmHg 88%
    05:00 +10°C° 0 mm 1 mps 733 mmHg 87%
    06:00 +10°C° 0 mm 1 mps 733 mmHg 87%
    07:00 +10°C° 0 mm 1 mps 733 mmHg 86%
    08:00 +12°C° 0 mm 0 mps 733 mmHg 77%
    09:00 +15°C° 0 mm 0 mps 734 mmHg 69%
    10:00 +17°C° 0 mm 0 mps 734 mmHg 60%
    11:00 +18°C° 0 mm 0 mps 733 mmHg 56%
    12:00 +21°C° 0 mm 1 mps 733 mmHg 52%
    13:00 +22°C° 0 mm 1 mps 733 mmHg 48%
    14:00 +21°C° 0 mm 1 mps 733 mmHg 53%
    15:00 +20°C° 0 mm 1 mps 733 mmHg 58%
    16:00 +20°C° 0 mm 1 mps 732 mmHg 64%
    17:00 +18°C° 0 mm 1 mps 733 mmHg 67%
    18:00 +15°C° 0 mm 1 mps 733 mmHg 71%
    19:00 +13°C° 0 mm 1 mps 733 mmHg 75%
    20:00 +13°C° 0 mm 1 mps 733 mmHg 75%
    21:00 +13°C° 0 mm 1 mps 733 mmHg 76%
    22:00 +12°C° 0 mm 1 mps 734 mmHg 76%
    23:00 +12°C° 0 mm 1 mps 734 mmHg 76%

    Pasado mañana, 20 Octubre, Viernes

    Tiempo Temperatura Precipitaciones Viento Presión Humedad
    00:00 +12°C° 0 mm 1 mps 734 mmHg 76%
    01:00 +11°C° 0 mm 1 mps 734 mmHg 76%
    02:00 +11°C° 0 mm 1 mps 734 mmHg 76%
    03:00 +11°C° 0 mm 1 mps 733 mmHg 77%
    04:00 +11°C° 0 mm 1 mps 733 mmHg 77%
    05:00 +11°C° 0 mm 1 mps 733 mmHg 77%
    06:00 +10°C° 0 mm 1 mps 734 mmHg 78%
    07:00 +10°C° 0 mm 1 mps 734 mmHg 78%
    08:00 +13°C° 0 mm 1 mps 734 mmHg 71%
    09:00 +15°C° 0 mm 1 mps 734 mmHg 64%
    10:00 +19°C° 0 mm 1 mps 734 mmHg 57%
    11:00 +20°C° 0 mm 1 mps 734 mmHg 54%
    12:00 +21°C° 0 mm 1 mps 734 mmHg 52%
    13:00 +22°C° 0 mm 1 mps 734 mmHg 49%
    14:00 +21°C° 0 mm 1 mps 734 mmHg 55%
    15:00 +20°C° 0 mm 1 mps 734 mmHg 61%
    16:00 +19°C° 0 mm 1 mps 734 mmHg 67%
    17:00 +16°C° 0 mm 1 mps 734 mmHg 73%
    18:00 +15°C° 0 mm 1 mps 734 mmHg 80%
    19:00 +13°C° 0 mm 1 mps 735 mmHg 86%
    20:00 +12°C° 0 mm 1 mps 735 mmHg 86%
    21:00 +12°C° 0 mm 1 mps 735 mmHg 87%
    22:00 +12°C° 0 mm 1 mps 736 mmHg 87%
    23:00 +11°C° 0 mm 1 mps 736 mmHg 87%

    21 Octubre, Sábado

    Tiempo Temperatura Precipitaciones Viento Presión Humedad
    00:00 +11°C° 0 mm 1 mps 736 mmHg 87%
    01:00 +11°C° 0 mm 1 mps 736 mmHg 87%
    02:00 +11°C° 0 mm 1 mps 736 mmHg 87%
    03:00 +11°C° 0 mm 1 mps 736 mmHg 86%
    04:00 +10°C° 0 mm 1 mps 736 mmHg 86%
    05:00 +10°C° 0 mm 1 mps 736 mmHg 85%
    06:00 +10°C° 0 mm 1 mps 736 mmHg 84%
    07:00 +10°C° 0 mm 1 mps 736 mmHg 83%
    08:00 +13°C° 0 mm 1 mps 736 mmHg 76%
    09:00 +15°C° 0 mm 1 mps 736 mmHg 68%
    10:00 +17°C° 0 mm 0 mps 736 mmHg 61%
    11:00 +20°C° 0 mm 1 mps 736 mmHg 59%
    12:00 +20°C° 0 mm 1 mps 735 mmHg 58%
    13:00 +21°C° 0 mm 1 mps 735 mmHg 57%
    14:00 +20°C° 0 mm 1 mps 735 mmHg 62%
    15:00 +20°C° 0 mm 1 mps 734 mmHg 67%
    16:00 +19°C° 0 mm 1 mps 734 mmHg 72%
    17:00 +18°C° 0 mm 1 mps 734 mmHg 75%
    18:00 +15°C° 0 mm 1 mps 734 mmHg 78%
    19:00 +14°C° 0 mm 1 mps 734 mmHg 81%
    20:00 +14°C° 0 mm 1 mps 734 mmHg 79%
    21:00 +14°C° 0 mm 1 mps 734 mmHg 78%
    22:00 +14°C° 0 mm 1 mps 734 mmHg 76%
    23:00 +14°C° 0 mm 1 mps 734 mmHg 78%

    22 Octubre, Domingo

    Tiempo Temperatura Precipitaciones Viento Presión Humedad
    00:00 +13°C° 0 mm 1 mps 734 mmHg 79%
    01:00 +13°C° 0 mm 1 mps 734 mmHg 81%
    02:00 +12°C° 0 mm 1 mps 734 mmHg 84%
    03:00 +12°C° 0 mm 1 mps 734 mmHg 87%
    04:00 +12°C° 0 mm 1 mps 734 mmHg 89%
    05:00 +12°C° 0,4 mm 1 mps 734 mmHg 91%
    06:00 +12°C° 0,4 mm 2 mps 734 mmHg 93%
    07:00 +12°C° 0,4 mm 2 mps 734 mmHg 95%
    08:00 +12°C° 0,9 mm 2 mps 734 mmHg 94%
    09:00 +12°C° 0,9 mm 2 mps 734 mmHg 94%
    10:00 +11°C° 0,9 mm 3 mps 734 mmHg 94%
    11:00 +10°C° 1,3 mm 3 mps 734 mmHg 93%
    12:00 +10°C° 1,3 mm 3 mps 734 mmHg 92%
    13:00 +10°C° 1,3 mm 3 mps 734 mmHg 92%
    14:00 +9°C° 1,3 mm 3 mps 734 mmHg 92%
    15:00 +9°C° 1,3 mm 3 mps 734 mmHg 93%
    16:00 +8°C° 1,3 mm 3 mps 734 mmHg 93%
    17:00 +8°C° 0,6 mm 2 mps 735 mmHg 94%
    18:00 +8°C° 0,6 mm 2 mps 735 mmHg 94%
    19:00 +8°C° 0,6 mm 2 mps 736 mmHg 94%
    20:00 +8°C° 0,1 mm 2 mps 736 mmHg 94%
    21:00 +7°C° 0,1 mm 2 mps 736 mmHg 94%
    22:00 +7°C° 0,1 mm 2 mps 736 mmHg 94%
    23:00 +7°C° 0,1 mm 2 mps 736 mmHg 94%

    23 Octubre, Lunes

    Tiempo Temperatura Precipitaciones Viento Presión Humedad
    00:00 +7°C° 0,1 mm 2 mps 736 mmHg 94%
    01:00 +7°C° 0,1 mm 2 mps 736 mmHg 95%
    02:00 +7°C° 0 mm 3 mps 736 mmHg 94%
    03:00 +5°C° 0 mm 3 mps 736 mmHg 94%
    04:00 +5°C° 0 mm 3 mps 736 mmHg 94%
    05:00 +5°C° 0 mm 3 mps 736 mmHg 94%
    06:00 +5°C° 0 mm 3 mps 736 mmHg 93%
    07:00 +5°C° 0 mm 3 mps 736 mmHg 93%
    08:00 +7°C° 0 mm 3 mps 736 mmHg 91%
    09:00 +7°C° 0 mm 3 mps 736 mmHg 89%
    10:00 +7°C° 0 mm 4 mps 737 mmHg 87%
    11:00 +8°C° 0,1 mm 3 mps 736 mmHg 86%
    12:00 +9°C° 0,1 mm 3 mps 736 mmHg 84%
    13:00 +9°C° 0,1 mm 3 mps 736 mmHg 83%
    14:00 +9°C° 0,1 mm 3 mps 736 mmHg 85%
    15:00 +9°C° 0,1 mm 3 mps 736 mmHg 87%
    16:00 +9°C° 0,1 mm 3 mps 736 mmHg 89%
    17:00 +8°C° 0,1 mm 2 mps 737 mmHg 91%
    18:00 +8°C° 0,1 mm 2 mps 737 mmHg 93%
    19:00 +7°C° 0,1 mm 2 mps 737 mmHg 95%
    20:00 +7°C° 0,1 mm 2 mps 737 mmHg 96%
    21:00 +7°C° 0,1 mm 2 mps 738 mmHg 96%
    22:00 +7°C° 0,1 mm 2 mps 738 mmHg 97%
    23:00 +7°C° 0,2 mm 2 mps 738 mmHg 96%
    Mostrar más